Location: Newark
(48.3453°N, 0.5589°E)
Time: 04:33:44
(UTC+00:00)

A-11 Canister half - Pass Details

Date: 12 December 2019
Orbit: 1517 x 1683 km, 47.2° (Epoch: 23 January)

Event Time Altitude Azimuth Distance (km) Brightness Sun altitude
Rises 13:22:08 0° 255° (WSW) 4,763 12.1 15.7°
Reaches altitude 10° 13:25:10 10° 255° (WSW) 3,801 11.7 15.5°
Maximum altitude 13:34:54 81° 170° (S) 1,654 9.6 14.9°
Drops below altitude 10° 13:44:59 10° 85° (E) 3,926 10.9 14.2°
Sets 13:48:10 0° 84° (E) 4,926 11.3 13.9°
